ENGINEERING TRACK TESTING
Weather & Rail Temperature Monitoring
Weather station MERIDEN
Meriden Passenger Station (Meriden CT)
Measurement History
![]() ENGINEERING TRACK TESTING Weather station MERIDEN Meriden Passenger Station (Meriden CT) Measurement History ![]() |
Conditions for past 24 hours (since 09/01/2026 01:31 AM)
| Time | Track 1 W rail | Track 1 E rail | Track 2 W rail | Track 2 E rail | Outside Air Temperature |
Solar Radiation |
Max. Wind | Humidity | Air Pressure | Rain | |
| Speed | Dir | ||||||||||
| 09/02/2026 01:15 AM | 70 °F | 68 °F | 62 °F | 62 °F | 62.5 °F | 0 watt/m2 | 6 mph | NNE | 90 % | 30.056 in Hg | 0 in |
| 09/02/2026 01:00 AM | 70 °F | 68 °F | 62 °F | 62 °F | 62.5 °F | 0 watt/m2 | 0 mph | --- | 90 % | 30.05 in Hg | 0 in |
| 09/02/2026 12:45 AM | 70 °F | 69 °F | 62 °F | 62 °F | 62.4 °F | 0 watt/m2 | 0 mph | --- | 90 % | 30.044 in Hg | 0 in |
| 09/02/2026 12:30 AM | 70 °F | 69 °F | 62 °F | 62 °F | 62.5 °F | 0 watt/m2 | 3 mph | NNW | 90 % | 30.039 in Hg | 0 in |
| 09/02/2026 12:15 AM | 70 °F | 69 °F | 63 °F | 62 °F | 62.6 °F | 0 watt/m2 | 0 mph | --- | 90 % | 30.04 in Hg | 0 in |
| 09/02/2026 12:00 AM | 70 °F | 69 °F | 63 °F | 62 °F | 62.7 °F | 0 watt/m2 | 0 mph | --- | 90 % | 30.043 in Hg | 0 in |
| 09/01/2026 11:45 PM | 70 °F | 69 °F | 63 °F | 62 °F | 62.8 °F | 0 watt/m2 | 0 mph | --- | 90 % | 30.037 in Hg | 0 in |
| 09/01/2026 11:30 PM | 70 °F | 69 °F | 63 °F | 62 °F | 62.8 °F | 0 watt/m2 | 0 mph | --- | 90 % | 30.032 in Hg | 0 in |
| 09/01/2026 11:15 PM | 70 °F | 69 °F | 63 °F | 62 °F | 62.7 °F | 0 watt/m2 | 3 mph | NNE | 90 % | 30.027 in Hg | 0 in |
| 09/01/2026 11:00 PM | 70 °F | 69 °F | 63 °F | 62 °F | 62.7 °F | 0 watt/m2 | 3 mph | NNE | 90 % | 30.035 in Hg | 0 in |
| 09/01/2026 10:45 PM | 70 °F | 69 °F | 63 °F | 62 °F | 62.7 °F | 0 watt/m2 | 5 mph | N | 90 % | 30.024 in Hg | 0 in |
| 09/01/2026 10:30 PM | 70 °F | 69 °F | 63 °F | 62 °F | 62.7 °F | 0 watt/m2 | 4 mph | N | 90 % | 30.019 in Hg | 0 in |
| 09/01/2026 10:15 PM | 70 °F | 69 °F | 63 °F | 62 °F | 62.8 °F | 0 watt/m2 | 6 mph | N | 90 % | 30.017 in Hg | 0 in |
| 09/01/2026 10:00 PM | 70 °F | 69 °F | 63 °F | 62 °F | 62.8 °F | 0 watt/m2 | 0 mph | --- | 90 % | 30.021 in Hg | 0 in |
| 09/01/2026 09:45 PM | 70 °F | 69 °F | 63 °F | 62 °F | 62.8 °F | 0 watt/m2 | 0 mph | --- | 90 % | 30.017 in Hg | 0 in |
| 09/01/2026 09:30 PM | 70 °F | 69 °F | 63 °F | 62 °F | 62.8 °F | 0 watt/m2 | 0 mph | --- | 90 % | 30.009 in Hg | 0 in |
| 09/01/2026 09:15 PM | 70 °F | 69 °F | 63 °F | 62 °F | 62.7 °F | 0 watt/m2 | 0 mph | --- | 90 % | 30.003 in Hg | 0 in |
| 09/01/2026 09:00 PM | 70 °F | 69 °F | 63 °F | 62 °F | 62.7 °F | 0 watt/m2 | 0 mph | --- | 90 % | 30.004 in Hg | 0 in |
| 09/01/2026 08:45 PM | 70 °F | 69 °F | 63 °F | 62 °F | 62.8 °F | 0 watt/m2 | 0 mph | --- | 90 % | 30 in Hg | 0 in |
| 09/01/2026 08:30 PM | 70 °F | 69 °F | 63 °F | 62 °F | 62.7 °F | 0 watt/m2 | 0 mph | --- | 90 % | 29.998 in Hg | 0 in |
| 09/01/2026 08:15 PM | 70 °F | 69 °F | 63 °F | 63 °F | 62.7 °F | 0 watt/m2 | 0 mph | --- | 90 % | 29.985 in Hg | 0 in |
| 09/01/2026 08:00 PM | 71 °F | 69 °F | -13 °F | 63 °F | 62.8 °F | 0 watt/m2 | 0 mph | --- | 90 % | 29.989 in Hg | 0 in |
| 09/01/2026 07:45 PM | 71 °F | 69 °F | -7 °F | 63 °F | 63 °F | 0 watt/m2 | 0 mph | --- | 90 % | 29.994 in Hg | 0 in |
| 09/01/2026 07:30 PM | 71 °F | 69 °F | -10 °F | 63 °F | 63.1 °F | 0 watt/m2 | 0 mph | --- | 90 % | 29.993 in Hg | 0 in |
| 09/01/2026 07:15 PM | 71 °F | 70 °F | 2 °F | 63 °F | 63.1 °F | 0 watt/m2 | 6 mph | NE | 90 % | 29.991 in Hg | 0 in |
| 09/01/2026 07:00 PM | 71 °F | 70 °F | 5 °F | 64 °F | 63.2 °F | 0 watt/m2 | 9 mph | N | 90 % | 29.98 in Hg | 0 in |
| 09/01/2026 06:45 PM | 72 °F | 70 °F | 12 °F | 64 °F | 63.5 °F | 7 watt/m2 | 7 mph | N | 90 % | 29.981 in Hg | 0 in |
| 09/01/2026 06:30 PM | 72 °F | 71 °F | 20 °F | 64 °F | 63.8 °F | 6 watt/m2 | 6 mph | NE | 90 % | 29.982 in Hg | 0 in |
| 09/01/2026 06:15 PM | 72 °F | 71 °F | 27 °F | 65 °F | 64.1 °F | 10 watt/m2 | 9 mph | NNE | 90 % | 29.974 in Hg | 0 in |
| 09/01/2026 06:00 PM | 73 °F | 71 °F | 30 °F | 65 °F | 64.4 °F | 10 watt/m2 | 7 mph | ENE | 90 % | 29.968 in Hg | 0 in |
| 09/01/2026 05:45 PM | 73 °F | 72 °F | 35 °F | 66 °F | 64.9 °F | 9 watt/m2 | 9 mph | N | 90 % | 29.965 in Hg | 0 in |
| 09/01/2026 05:30 PM | 74 °F | 72 °F | 38 °F | 66 °F | 65.2 °F | 15 watt/m2 | 5 mph | NNE | 90 % | 29.963 in Hg | 0 in |
| 09/01/2026 05:15 PM | 74 °F | 73 °F | 45 °F | 67 °F | 65.8 °F | 17 watt/m2 | 7 mph | NE | 89 % | 29.96 in Hg | 0 in |
| 09/01/2026 05:00 PM | 75 °F | 74 °F | 68 °F | 67 °F | 66.1 °F | 17 watt/m2 | 6 mph | WNW | 90 % | 29.957 in Hg | 0 in |
| 09/01/2026 04:45 PM | 75 °F | 74 °F | 69 °F | 68 °F | 66.5 °F | 18 watt/m2 | 5 mph | NNW | 89 % | 29.948 in Hg | 0 in |
| 09/01/2026 04:30 PM | 76 °F | 75 °F | 70 °F | 69 °F | 66.8 °F | 25 watt/m2 | 7 mph | NE | 89 % | 29.935 in Hg | 0 in |
| 09/01/2026 04:15 PM | 77 °F | 76 °F | 71 °F | 70 °F | 67.2 °F | 17 watt/m2 | 7 mph | NE | 89 % | 29.933 in Hg | 0 in |
| 09/01/2026 04:00 PM | 78 °F | 77 °F | 72 °F | 71 °F | 67.8 °F | 15 watt/m2 | 7 mph | E | 89 % | 29.926 in Hg | 0 in |
| 09/01/2026 03:45 PM | 79 °F | 78 °F | 73 °F | 72 °F | 68.4 °F | 14 watt/m2 | 11 mph | ENE | 88 % | 29.92 in Hg | 0 in |
| 09/01/2026 03:30 PM | 81 °F | 79 °F | 75 °F | 74 °F | 69.8 °F | 18 watt/m2 | 10 mph | ENE | 88 % | 29.918 in Hg | 0 in |
| 09/01/2026 03:15 PM | 81 °F | 80 °F | 75 °F | 74 °F | 70.8 °F | 29 watt/m2 | 12 mph | ESE | 87 % | 29.911 in Hg | 0 in |
| 09/01/2026 03:00 PM | 83 °F | 81 °F | 76 °F | 76 °F | 73.7 °F | 48 watt/m2 | 8 mph | ENE | 88 % | 29.905 in Hg | 0 in |
| 09/01/2026 02:45 PM | 83 °F | 81 °F | 76 °F | 76 °F | 73.7 °F | 87 watt/m2 | 5 mph | ESE | 89 % | 29.902 in Hg | 0 in |
| 09/01/2026 02:30 PM | 82 °F | 81 °F | 76 °F | 76 °F | 73.5 °F | 90 watt/m2 | 1 mph | E | 89 % | 29.903 in Hg | 0 in |
| 09/01/2026 02:15 PM | 82 °F | 81 °F | 76 °F | 75 °F | 73.3 °F | 115 watt/m2 | 6 mph | E | 89 % | 29.905 in Hg | 0 in |
| 09/01/2026 02:00 PM | 82 °F | 81 °F | 75 °F | 75 °F | 73.1 °F | 62 watt/m2 | 5 mph | ESE | 89 % | 29.909 in Hg | 0 in |
| 09/01/2026 01:45 PM | 82 °F | 81 °F | 75 °F | 75 °F | 73 °F | 41 watt/m2 | 7 mph | SSE | 89 % | 29.915 in Hg | 0 in |
| 09/01/2026 01:30 PM | 82 °F | 81 °F | 76 °F | 75 °F | 73 °F | 97 watt/m2 | 7 mph | E | 89 % | 29.916 in Hg | 0 in |
| 09/01/2026 01:15 PM | 82 °F | 80 °F | 75 °F | 75 °F | 72.8 °F | 93 watt/m2 | 6 mph | SSE | 89 % | 29.903 in Hg | 0 in |
| 09/01/2026 01:00 PM | 81 °F | 80 °F | 75 °F | 75 °F | 72.7 °F | 32 watt/m2 | 6 mph | S | 89 % | 29.915 in Hg | 0 in |
| 09/01/2026 12:45 PM | 82 °F | 81 °F | 75 °F | 75 °F | 72.7 °F | 44 watt/m2 | 6 mph | S | 89 % | 29.916 in Hg | 0 in |
| 09/01/2026 12:30 PM | 82 °F | 81 °F | 76 °F | 75 °F | 72.7 °F | 62 watt/m2 | 5 mph | SE | 89 % | 29.918 in Hg | 0 in |
| 09/01/2026 12:15 PM | 82 °F | 81 °F | 76 °F | 75 °F | 72.6 °F | 110 watt/m2 | 6 mph | SE | 89 % | 29.922 in Hg | 0 in |
| 09/01/2026 12:00 PM | 82 °F | 81 °F | 75 °F | 75 °F | 72.4 °F | 100 watt/m2 | 6 mph | SSE | 89 % | 29.92 in Hg | 0 in |
| 09/01/2026 11:45 AM | 82 °F | 81 °F | 75 °F | 75 °F | 72 °F | 118 watt/m2 | 5 mph | SE | 89 % | 29.927 in Hg | 0 in |
| 09/01/2026 11:30 AM | 82 °F | 81 °F | 75 °F | 74 °F | 71.8 °F | 147 watt/m2 | 6 mph | SE | 89 % | 29.931 in Hg | 0 in |
| 09/01/2026 11:15 AM | 81 °F | 80 °F | 74 °F | 74 °F | 71.5 °F | 156 watt/m2 | 0 mph | --- | 89 % | 29.933 in Hg | 0 in |
| 09/01/2026 11:00 AM | 80 °F | 79 °F | 73 °F | 73 °F | 71.1 °F | 128 watt/m2 | 6 mph | SE | 90 % | 29.932 in Hg | 0 in |
| 09/01/2026 10:45 AM | 80 °F | 79 °F | 73 °F | 73 °F | 70.9 °F | 150 watt/m2 | 6 mph | S | 89 % | 29.937 in Hg | 0 in |
| 09/01/2026 10:30 AM | 79 °F | 78 °F | 72 °F | 72 °F | 70.7 °F | 114 watt/m2 | 5 mph | ESE | 89 % | 29.944 in Hg | 0 in |
| 09/01/2026 10:15 AM | 79 °F | 77 °F | 71 °F | 71 °F | 70.4 °F | 92 watt/m2 | 0 mph | --- | 89 % | 29.946 in Hg | 0 in |
| 09/01/2026 10:00 AM | 78 °F | 77 °F | 71 °F | 71 °F | 70.3 °F | 98 watt/m2 | 4 mph | S | 89 % | 29.949 in Hg | 0 in |
| 09/01/2026 09:45 AM | 78 °F | 76 °F | 70 °F | 70 °F | 70 °F | 62 watt/m2 | 0 mph | --- | 89 % | 29.949 in Hg | 0 in |
| 09/01/2026 09:30 AM | 78 °F | 76 °F | 70 °F | 70 °F | 69.9 °F | 40 watt/m2 | 0 mph | --- | 89 % | 29.949 in Hg | 0 in |
| 09/01/2026 09:15 AM | 77 °F | 76 °F | 70 °F | 70 °F | 69.8 °F | 30 watt/m2 | 0 mph | --- | 89 % | 29.953 in Hg | 0 in |
| 09/01/2026 09:00 AM | 77 °F | 76 °F | 70 °F | 70 °F | 69.8 °F | 55 watt/m2 | 5 mph | SSE | 89 % | 29.949 in Hg | 0 in |
| 09/01/2026 08:45 AM | 77 °F | 76 °F | 70 °F | 70 °F | 69.7 °F | 39 watt/m2 | 6 mph | SE | 89 % | 29.953 in Hg | 0 in |
| 09/01/2026 08:30 AM | 77 °F | 76 °F | 70 °F | 70 °F | 69.6 °F | 50 watt/m2 | 7 mph | SE | 89 % | 29.952 in Hg | 0 in |
| 09/01/2026 08:15 AM | 77 °F | 75 °F | 69 °F | 69 °F | 69.5 °F | 25 watt/m2 | 3 mph | SSE | 89 % | 29.954 in Hg | 0 in |
| 09/01/2026 08:00 AM | 76 °F | 75 °F | 69 °F | 69 °F | 69.4 °F | 18 watt/m2 | 8 mph | SSE | 89 % | 29.955 in Hg | 0 in |
| 09/01/2026 07:45 AM | 76 °F | 75 °F | 69 °F | 69 °F | 69.3 °F | 21 watt/m2 | 5 mph | SSE | 89 % | 29.953 in Hg | 0 in |
| 09/01/2026 07:30 AM | 76 °F | 75 °F | 69 °F | 69 °F | 69.2 °F | 14 watt/m2 | 4 mph | S | 89 % | 29.949 in Hg | 0 in |
| 09/01/2026 07:15 AM | 76 °F | 75 °F | 69 °F | 69 °F | 69.2 °F | 4 watt/m2 | 0 mph | --- | 89 % | 29.948 in Hg | 0 in |
| 09/01/2026 07:00 AM | 76 °F | 75 °F | 69 °F | 69 °F | 69.2 °F | 0 watt/m2 | 0 mph | --- | 89 % | 29.951 in Hg | 0 in |
| 09/01/2026 06:45 AM | 76 °F | 75 °F | 69 °F | 69 °F | 69.1 °F | 0 watt/m2 | 0 mph | --- | 89 % | 29.954 in Hg | 0 in |
| 09/01/2026 06:30 AM | 76 °F | 75 °F | 69 °F | 69 °F | 69 °F | 0 watt/m2 | 0 mph | --- | 89 % | 29.948 in Hg | 0 in |
| 09/01/2026 06:15 AM | 76 °F | 75 °F | 69 °F | 69 °F | 69 °F | 0 watt/m2 | 0 mph | --- | 89 % | 29.948 in Hg | 0 in |
| 09/01/2026 06:00 AM | 76 °F | 75 °F | 69 °F | 69 °F | 69.1 °F | 0 watt/m2 | 1 mph | S | 89 % | 29.946 in Hg | 0 in |
| 09/01/2026 05:45 AM | 76 °F | 75 °F | 69 °F | 69 °F | 69.2 °F | 0 watt/m2 | 0 mph | --- | 89 % | 29.95 in Hg | 0 in |
| 09/01/2026 05:30 AM | 76 °F | 75 °F | 69 °F | 69 °F | 69.3 °F | 0 watt/m2 | 6 mph | SE | 89 % | 29.948 in Hg | 0 in |
| 09/01/2026 05:15 AM | 77 °F | 76 °F | 70 °F | 69 °F | 69.5 °F | 0 watt/m2 | 0 mph | --- | 89 % | 29.95 in Hg | 0 in |
| 09/01/2026 05:00 AM | 77 °F | 76 °F | 70 °F | 69 °F | 69.5 °F | 0 watt/m2 | 0 mph | --- | 89 % | 29.954 in Hg | 0 in |
| 09/01/2026 04:45 AM | 77 °F | 76 °F | 70 °F | 69 °F | 69.6 °F | 0 watt/m2 | 4 mph | SSE | 89 % | 29.96 in Hg | 0 in |
| 09/01/2026 04:30 AM | 77 °F | 76 °F | 70 °F | 70 °F | 69.6 °F | 0 watt/m2 | 0 mph | --- | 89 % | 29.964 in Hg | 0 in |
| 09/01/2026 04:15 AM | 77 °F | 76 °F | 70 °F | 70 °F | 69.6 °F | 0 watt/m2 | 0 mph | --- | 88 % | 29.966 in Hg | 0 in |
| 09/01/2026 04:00 AM | 77 °F | 76 °F | 70 °F | 70 °F | 69.6 °F | 0 watt/m2 | 0 mph | --- | 88 % | 29.968 in Hg | 0 in |
| 09/01/2026 03:45 AM | 77 °F | 76 °F | 70 °F | 70 °F | 69.8 °F | 0 watt/m2 | 0 mph | --- | 88 % | 29.973 in Hg | 0 in |
| 09/01/2026 03:30 AM | 78 °F | 76 °F | 71 °F | 70 °F | 70 °F | 0 watt/m2 | 0 mph | --- | 88 % | 29.976 in Hg | 0 in |
| 09/01/2026 03:15 AM | 78 °F | 77 °F | 71 °F | 71 °F | 70.2 °F | 0 watt/m2 | 3 mph | SSE | 88 % | 29.975 in Hg | 0 in |
| 09/01/2026 03:00 AM | 78 °F | 77 °F | 72 °F | 71 °F | 70.6 °F | 0 watt/m2 | 0 mph | --- | 87 % | 29.978 in Hg | 0 in |
| 09/01/2026 02:45 AM | 78 °F | 77 °F | 70 °F | 71 °F | 70.6 °F | 0 watt/m2 | 0 mph | --- | 86 % | 29.976 in Hg | 0 in |
| 09/01/2026 02:30 AM | 79 °F | 78 °F | 70 °F | 71 °F | 70.6 °F | 0 watt/m2 | 0 mph | --- | 86 % | 29.978 in Hg | 0 in |
| 09/01/2026 02:15 AM | 79 °F | 78 °F | 71 °F | 71 °F | 70.5 °F | 0 watt/m2 | 0 mph | --- | 86 % | 29.982 in Hg | 0 in |
| 09/01/2026 02:00 AM | 79 °F | 78 °F | 71 °F | 71 °F | 70.6 °F | 0 watt/m2 | 0 mph | --- | 86 % | 29.988 in Hg | 0 in |
| 09/01/2026 01:45 AM | 79 °F | 78 °F | 71 °F | 72 °F | 70.6 °F | 0 watt/m2 | 0 mph | --- | 86 % | 29.991 in Hg | 0 in |